Location: Rounton
(54.4000°N, 1.3500°W)
Time: 04:55:06
(UTC+00:00)

A-11 Canister half - Pass Details

Date: 02 December 2021
Orbit: 1516 x 1684 km, 47.2° (Epoch: 21 January)

Event Time Altitude Azimuth Distance (km) Brightness Sun altitude
Rises 14:11:05 0° 285° (WNW) 4,909 11.9 8.2°
Reaches altitude 10° 14:14:54 10° 273° (W) 3,934 11.6 7.9°
Maximum altitude 14:22:35 26° 223° (SW) 2,895 12.1 7.3°
Drops below altitude 10° 14:30:17 10° 173° (S) 3,935 12.0 6.6°
Sets 14:34:08 0° 161° (SSE) 4,910 12.2 6.3°
